Theta_e
301 301 301 300 300 300 301 301 301 301 302 302 301 301 302 302 302 301 302 302 301 299 299 298 297 296 295 293 292 291 291 291 290 289 289 289 288 288 287 286 285 286 285 284 283 284 282 280 280 280 281 281 281 279 279 279 280 279 279 281 280 279 279 279 279 278 277 278 277 278 278 280 282 280 278 278 277 277 277 276 276 276 276 276 276
300 299 299 300 300 300 300 300 300 299 300 301 300 301 302 302 302 301 302 302 301 300 299 299 299 298 295 293 291 291 291 289 288 289 290 290 288 287 287 285 285 285 286 285 283 281 281 280 280 280 281 281 281 281 280 282 279 279 278 277 279 279 278 279 279 277 277 276 276 277 277 277 280 279 277 278 277 277 277 276 276 276 276 276 276
298 299 299 299 299 299 300 300 300 300 300 300 301 301 301 301 302 302 301 301 301 301 300 299 299 297 294 293 292 290 291 291 290 291 290 287 287 286 286 285 285 285 285 285 282 281 280 280 280 279 280 281 279 278 278 278 278 278 278 278 277 278 279 280 278 278 276 276 276 278 276 275 280 278 276 277 277 277 276 276 276 276 276 275 277
296 297 297 298 298 298 299 299 300 300 300 300 301 300 301 301 301 301 301 302 301 301 301 300 299 295 294 293 292 290 289 291 289 289 288 287 286 286 286 285 284 284 284 284 282 281 280 280 280 279 279 279 278 278 278 278 278 278 278 279 277 277 277 277 280 278 277 276 276 277 276 276 275 275 275 277 276 276 276 275 276 276 276 276 276
297 297 297 298 298 298 298 299 300 299 299 299 300 300 301 301 301 301 301 301 301 302 301 299 297 295 293 291 291 289 289 288 287 287 288 288 287 285 285 284 284 284 283 283 284 280 279 279 279 279 278 278 279 278 278 278 277 277 278 278 277 277 276 276 278 279 278 279 277 276 275 275 275 275 275 274 275 276 275 275 278 275 276 277 275
298 297 297 298 298 298 299 299 299 299 299 300 300 301 301 301 302 302 301 301 301 301 299 298 296 294 292 290 289 287 286 286 286 286 286 286 285 285 284 284 284 283 282 282 283 282 279 279 278 279 278 279 279 278 278 278 278 278 278 278 278 278 277 276 276 278 279 279 277 277 275 276 274 274 274 274 275 276 276 276 274 274 276 276 275
299 298 298 298 298 298 298 298 299 299 300 301 301 301 302 301 301 301 301 301 301 300 299 299 296 295 292 291 291 290 288 288 288 288 287 286 285 283 283 283 283 283 282 281 281 281 279 278 279 279 279 279 281 278 278 278 278 278 280 278 279 280 277 276 276 276 276 278 278 277 278 277 276 274 272 273 273 274 274 275 275 275 276 275 275
298 297 298 298 298 298 297 298 299 299 300 301 300 301 301 301 301 301 301 301 300 300 299 299 296 295 292 291 291 290 289 289 288 287 286 286 284 283 282 282 282 282 281 280 280 280 279 279 278 278 279 279 280 278 278 278 279 279 279 279 279 278 277 277 276 276 275 275 278 277 277 277 276 276 275 274 273 271 274 276 274 276 276 275 275
298 297 298 298 298 299 299 298 299 300 300 300 300 300 301 301 301 301 301 301 300 300 299 298 298 296 293 292 291 291 290 289 289 288 286 287 284 283 282 281 281 280 281 280 279 281 281 279 278 278 279 279 281 279 278 278 277 277 277 278 278 278 279 278 276 276 276 275 275 275 275 275 275 275 275 275 273 271 271 272 274 275 274 274 274
299 299 299 299 299 299 299 300 300 300 300 301 301 300 300 300 300 300 300 300 300 299 299 298 298 297 294 292 292 290 290 288 287 287 286 286 285 283 282 281 280 280 279 279 279 279 279 279 278 278 279 280 280 277 277 278 278 277 277 277 278 278 278 277 277 276 276 276 275 276 275 275 275 274 274 273 273 273 271 271 272 271 271 273 275
299 299 300 300 300 300 300 299 299 300 300 300 300 300 300 300 300 299 299 300 300 299 299 298 297 296 294 293 291 290 289 288 287 286 286 285 284 283 281 281 280 279 280 279 278 278 278 280 278 278 280 282 280 278 278 278 277 277 277 278 277 277 277 277 278 277 276 276 275 275 275 275 274 273 272 273 272 271 271 271 272 272 272 271 273
299 299 299 300 299 299 300 299 299 299 299 299 299 299 299 299 299 299 299 299 300 299 299 298 297 295 293 293 292 291 290 289 287 286 286 285 284 282 281 280 280 280 279 278 279 279 280 279 280 278 279 277 277 278 278 278 278 277 277 277 277 277 277 278 276 276 275 275 275 275 275 275 275 274 275 274 273 272 272 271 271 272 272 272 274
299 298 298 298 298 298 298 298 298 298 298 298 299 299 299 299 299 298 298 299 299 299 298 298 296 294 293 293 292 292 290 289 288 288 287 286 285 283 281 281 280 280 278 279 278 278 279 278 277 277 278 278 278 278 278 278 278 277 277 277 277 277 276 276 276 276 276 275 275 275 275 275 275 275 275 274 274 274 272 270 271 272 270 271 272
300 299 299 298 298 298 298 297 297 298 298 298 298 298 298 298 298 298 298 299 299 299 299 298 296 295 294 293 293 293 291 290 289 289 287 287 286 285 283 282 281 280 279 279 278 278 279 279 278 277 277 278 278 278 278 278 278 277 277 277 277 277 276 276 276 276 276 276 276 275 275 275 275 275 274 275 274 273 271 270 270 270 271 270 271
300 300 299 299 299 298 298 297 297 297 298 298 298 298 299 298 298 298 298 299 299 299 298 298 297 296 295 294 293 293 292 291 290 290 288 287 287 286 284 283 282 280 280 279 279 279 278 278 277 277 277 278 279 279 280 278 278 278 278 277 277 277 277 277 276 276 276 275 275 275 276 275 275 275 275 275 274 274 273 272 270 269 269 270 270
300 300 300 299 299 299 298 297 297 297 298 298 298 298 298 298 298 298 298 298 299 298 298 297 297 296 295 294 294 293 293 291 291 290 289 289 287 286 285 284 283 282 280 279 279 279 278 277 278 277 277 278 278 278 278 278 277 277 278 277 277 278 277 276 276 276 276 275 275 275 275 275 276 275 275 275 274 274 274 273 272 270 268 268 270
300 300 299 299 299 298 298 297 296 296 297 297 297 298 298 299 298 298 298 299 299 299 298 297 297 295 295 295 294 293 292 291 291 290 289 289 288 287 286 285 284 282 280 280 279 278 278 278 278 277 277 277 277 278 278 278 277 278 277 277 277 277 277 276 276 276 276 275 275 275 275 276 275 276 276 276 275 274 274 273 273 271 270 268 267
301 300 299 299 298 298 297 297 297 297 297 297 297 298 299 299 299 298 298 298 298 299 298 297 296 295 295 295 294 293 293 292 292 291 289 288 288 287 286 285 283 282 281 281 279 278 278 280 277 277 277 277 277 277 277 278 278 277 277 277 277 277 277 277 277 276 276 276 276 276 276 276 276 275 275 275 274 273 273 273 272 273 272 268 267
301 300 299 298 297 297 297 297 297 297 297 297 298 299 299 299 300 299 299 299 299 298 298 297 296 296 296 295 295 294 293 293 292 291 290 289 288 287 286 285 283 282 282 280 278 278 278 278 277 277 277 277 277 277 277 277 277 277 277 277 277 277 277 276 276 277 276 277 276 275 274 275 275 274 274 274 274 274 273 273 273 273 273 272 269
301 301 300 299 298 298 298 297 296 297 297 298 298 299 299 299 299 299 299 299 298 298 297 296 296 296 295 295 295 294 294 293 292 291 289 289 288 287 286 284 283 283 282 281 279 278 278 277 277 277 277 277 277 277 277 277 277 277 278 277 277 276 277 276 276 277 278 277 275 275 275 275 275 274 274 274 273 274 274 273 273 273 272 272 271
302 301 301 299 298 298 298 298 297 298 298 298 298 298 299 299 299 298 298 297 297 297 297 297 296 295 295 294 294 294 294 294 292 291 290 289 288 287 285 284 283 282 282 280 279 279 278 278 277 278 277 277 277 277 277 277 277 277 277 277 276 277 277 276 277 276 276 276 276 275 274 275 274 273 273 273 274 273 273 274 274 272 272 272 271
303 301 301 300 299 298 298 298 298 297 297 297 298 298 298 298 299 298 298 297 297 296 296 296 296 296 295 295 294 294 294 294 293 291 291 289 288 286 285 283 282 283 282 281 279 279 278 278 277 277 277 277 277 277 276 276 277 276 276 277 277 277 276 276 276 276 276 277 276 275 275 274 274 273 273 273 273 273 273 272 272 273 271 272 272
304 303 303 302 301 300 300 298 297 297 297 297 297 298 298 298 298 298 298 298 298 297 297 297 297 296 296 295 295 294 294 293 292 291 290 289 288 286 285 283 283 283 282 281 279 278 278 278 277 277 277 276 277 276 276 276 276 276 276 277 277 276 276 276 276 276 276 275 275 275 275 274 273 272 273 273 274 273 273 272 272 272 272 272 272
303 303 304 303 302 301 300 299 298 298 297 297 297 298 298 298 298 298 298 298 298 298 298 297 297 296 296 295 294 294 293 293 292 291 290 289 288 286 285 284 284 282 281 280 278 278 278 277 277 277 276 276 276 276 276 276 276 276 276 276 276 276 276 276 276 276 276 276 275 275 274 274 273 272 272 273 273 273 272 272 272 272 272 272 272
301 303 303 303 302 301 301 300 300 299 298 298 298 298 298 298 298 298 298 298 298 298 298 297 297 296 296 295 294 293 293 293 292 292 291 290 288 286 284 284 283 282 281 279 279 278 278 277 277 277 277 276 276 276 276 276 276 276 276 276 276 276 276 276 276 276 278 276 276 275 275 273 273 271 271 272 272 272 272 272 272 272 272 273 273
301 301 302 302 302 302 302 301 301 301 300 300 299 299 299 299 299 299 298 298 298 298 298 297 297 296 295 294 294 294 293 293 293 292 291 289 288 286 285 284 283 282 281 280 280 278 278 277 277 277 277 276 276 276 276 276 276 276 276 276 276 276 276 276 276 276 276 276 276 276 275 273 272 272 271 272 272 272 272 272 271 272 272 273 272
299 301 301 301 302 302 302 302 302 302 302 301 301 300 300 300 299 299 299 298 298 298 298 297 297 296 295 294 294 294 293 293 293 292 290 289 287 286 284 284 283 282 281 280 278 278 278 277 277 277 277 276 276 276 276 276 275 275 275 275 275 275 276 275 275 275 276 276 276 275 274 273 273 272 272 271 271 272 272 272 272 272 273 272 272
293 295 298 300 301 302 302 302 301 301 301 302 302 301 301 300 300 299 299 298 298 297 297 296 296 295 295 294 294 294 293 293 293 291 290 289 287 286 285 285 284 282 281 280 278 278 277 277 277 277 277 276 276 276 275 275 275 275 275 275 275 275 275 275 275 276 276 276 276 276 275 274 273 273 273 272 272 272 272 272 272 272 272 272 271
292 294 295 296 298 300 300 300 301 300 301 300 301 300 300 300 300 299 298 298 297 296 295 295 295 295 295 295 294 293 293 293 292 291 290 288 287 286 285 285 283 282 281 280 279 279 278 277 276 276 276 276 276 276 276 276 275 275 275 275 275 275 275 275 275 276 276 276 275 274 274 274 274 276 278 277 275 275 272 271 272 272 271 271 270
291 292 293 293 295 296 297 298 298 300 300 300 300 300 299 299 298 298 297 297 295 295 295 295 295 295 295 294 294 293 293 292 291 290 289 288 287 286 285 284 283 282 281 280 279 278 278 277 277 276 276 276 276 276 278 280 280 277 276 275 275 275 275 275 275 275 276 275 275 274 274 277 278 278 279 279 279 279 278 275 273 273 271 270 271
290 290 291 291 291 292 294 295 296 297 298 299 298 298 297 296 296 295 296 295 294 294 294 294 294 295 295 294 293 292 292 291 291 290 289 288 287 286 285 284 284 282 281 280 279 278 277 277 277 277 276 276 276 277 280 283 283 283 277 275 275 275 275 275 275 275 275 275 275 274 273 275 278 279 278 280 280 280 280 280 280 280 278 272 270
290 290 291 291 291 291 292 294 295 296 296 296 297 296 295 295 295 295 295 293 293 294 293 293 293 293 293 293 292 291 290 290 289 289 288 288 287 286 285 284 283 282 281 279 278 278 278 278 278 277 277 277 276 280 282 284 285 285 283 277 275 275 275 275 275 275 275 275 275 274 273 273 274 275 275 277 279 280 281 280 280 280 280 280 279
289 289 290 290 291 292 292 292 292 293 294 295 295 293 294 295 294 294 291 291 292 293 293 293 292 292 291 290 288 288 288 289 289 289 288 287 286 286 285 284 282 281 280 279 279 279 279 278 278 278 278 278 277 281 283 284 285 286 286 281 275 275 275 275 275 275 275 275 275 274 274 273 273 276 276 275 274 275 279 280 279 279 279 279 279
284 285 287 288 289 290 291 291 292 291 291 291 289 292 294 292 291 289 290 290 291 291 291 291 290 291 290 289 288 288 288 289 289 288 288 287 286 286 285 284 283 281 280 280 280 280 279 279 278 278 279 279 278 281 284 285 286 286 287 285 276 275 275 275 275 275 275 275 275 274 274 274 273 273 274 274 273 272 272 272 272 272 271 274 277
282 282 282 284 287 287 287 287 288 288 287 288 288 289 288 288 289 289 289 289 289 289 289 289 290 290 289 289 289 288 289 289 288 288 287 287 286 286 285 284 283 282 281 281 281 280 279 280 279 279 279 279 279 282 284 285 286 287 287 287 279 277 276 275 275 275 276 276 275 275 274 274 274 273 273 274 273 272 270 270 270 271 271 271 273
283 283 283 283 284 285 287 288 287 287 286 287 289 287 288 288 287 289 287 288 288 288 289 289 290 289 288 288 289 289 289 288 287 287 287 287 286 286 285 284 283 282 282 282 281 281 281 280 280 279 279 279 280 283 284 285 286 287 288 284 281 279 277 277 276 276 276 276 276 275 275 274 274 273 275 279 277 272 270 270 270 270 270 271 273
282 282 282 282 283 284 285 285 285 287 287 288 287 287 287 286 286 286 287 287 287 288 288 289 288 288 287 287 288 289 289 288 287 287 287 287 286 285 285 284 283 283 282 282 282 282 282 281 280 279 279 280 280 282 284 285 286 287 287 282 281 279 278 278 278 277 277 276 276 276 275 275 274 273 276 280 281 277 269 270 270 269 270 271 273
281 281 281 281 281 281 281 284 284 284 286 286 285 286 287 286 286 285 286 286 286 288 288 287 288 287 288 287 288 289 289 288 287 287 287 287 286 286 285 284 284 283 282 282 282 282 281 281 280 279 280 280 281 281 284 286 286 287 286 282 281 279 279 278 278 278 277 277 276 277 276 275 275 274 278 281 282 279 271 270 270 269 269 269 272
281 281 281 280 280 280 280 281 282 284 284 283 284 285 286 286 286 285 285 286 286 287 287 287 288 288 288 288 288 288 288 288 288 287 287 287 287 286 286 285 284 284 283 283 282 282 281 280 280 281 280 280 281 280 284 285 286 287 286 282 280 279 278 278 278 278 277 276 276 276 277 277 276 276 280 282 283 280 274 272 271 270 270 270 271
278 279 279 280 279 281 282 283 283 284 282 283 284 285 285 286 285 284 285 286 287 287 287 287 287 287 287 287 287 288 288 288 288 288 288 288 288 287 286 285 284 283 283 282 281 280 280 280 280 281 281 280 280 280 280 285 286 287 287 282 280 278 278 278 277 277 277 275 275 275 277 280 282 281 281 282 283 283 276 273 272 271 270 271 268
280 279 280 279 278 280 281 281 281 281 281 282 283 284 285 284 284 284 285 287 287 286 286 286 285 286 286 286 286 287 287 288 288 288 288 287 287 286 285 284 283 283 282 282 281 280 280 280 281 281 280 280 280 280 279 284 286 287 287 285 279 279 279 279 278 277 276 277 276 275 274 278 282 283 283 283 283 284 282 275 273 272 273 272 273
278 278 277 277 278 278 279 279 279 278 280 282 283 284 284 284 283 285 287 285 285 285 284 284 284 285 285 285 285 285 285 287 287 287 287 287 286 286 285 285 284 283 282 282 281 281 281 280 280 279 279 279 279 279 279 282 284 286 287 287 281 280 280 279 278 277 276 276 277 276 275 276 280 282 283 284 284 284 284 277 275 278 279 279 277
277 278 277 277 278 278 279 279 278 278 279 281 282 283 283 282 284 286 286 284 283 284 285 285 285 285 284 285 284 284 284 285 285 284 285 285 284 284 284 283 283 282 282 281 281 280 279 279 279 278 278 278 278 278 279 278 282 285 287 287 286 283 283 280 278 278 278 278 277 276 275 277 280 281 283 284 284 284 283 280 281 281 281 281 279
276 276 277 276 277 277 278 278 277 277 278 280 282 283 282 282 285 285 283 281 282 282 283 283 284 284 284 284 284 284 284 284 284 283 283 283 281 281 281 281 281 281 280 279 279 278 278 278 278 278 278 277 277 277 278 279 279 283 286 287 287 287 285 281 279 279 279 278 277 275 275 279 280 281 282 283 284 284 281 283 283 283 282 281 274
277 277 276 275 277 278 277 277 276 276 277 279 281 283 282 283 283 283 283 283 282 281 282 282 283 283 283 283 283 283 283 283 283 283 282 282 281 280 280 278 279 279 279 279 279 278 278 278 278 278 279 278 277 277 277 277 278 280 283 285 286 287 287 286 281 279 279 278 279 281 280 280 280 281 282 283 283 283 284 283 283 283 280 276 271
276 276 276 276 275 275 275 277 278 275 277 278 280 282 282 283 280 282 283 281 280 280 280 282 282 282 282 281 281 281 281 281 281 282 283 283 283 281 281 279 278 279 279 279 279 278 278 278 278 279 279 279 277 276 277 276 276 277 279 283 285 285 284 285 283 282 280 281 281 282 282 281 280 280 279 277 276 278 282 282 282 280 278 274 271
277 277 276 275 273 276 276 276 277 276 277 278 278 281 283 282 280 280 281 279 279 280 281 281 281 281 279 280 281 282 281 280 280 280 281 281 281 281 281 280 279 279 278 278 279 278 278 278 278 279 279 278 277 277 277 275 275 275 276 277 279 281 282 282 282 282 281 281 280 279 279 280 278 279 278 277 277 276 275 277 277 276 275 273 271
276 276 275 274 275 276 277 276 278 278 277 277 277 279 280 281 280 278 276 278 279 280 281 281 280 280 280 280 281 280 281 280 280 280 280 280 280 281 281 281 280 280 279 279 279 279 279 279 279 279 278 277 278 278 278 277 276 275 276 275 275 276 277 279 280 281 281 279 276 276 278 274 274 273 273 270 271 270 271 271 274 273 273 270 270
276 276 273 277 276 277 277 276 278 279 277 276 277 278 278 278 279 276 276 278 280 279 280 278 278 278 279 279 280 280 281 281 280 279 281 282 282 281 282 282 283 283 283 282 281 281 281 281 281 280 279 279 279 279 280 280 279 280 277 275 274 275 276 277 279 282 275 271 271 271 271 271 271 272 271 272 271 270 270 270 270 271 270 270 269
276 276 274 275 274 275 276 277 279 278 277 277 277 277 277 276 275 276 277 279 280 279 277 279 278 278 279 279 279 279 279 280 280 280 280 280 279 282 283 283 283 282 283 285 284 283 283 282 281 282 282 282 282 283 284 284 283 283 283 282 280 280 280 278 279 283 278 273 273 274 273 273 272 272 272 272 271 271 271 270 270 271 270 270 269
276 275 275 274 275 274 274 275 278 277 277 277 277 277 276 276 275 276 277 279 278 279 279 279 279 279 280 280 279 279 279 279 280 280 280 280 280 281 282 284 284 282 283 283 284 285 285 284 283 282 282 284 285 285 285 285 284 284 284 284 283 283 282 282 281 280 275 275 274 273 274 273 273 273 273 273 272 271 271 271 271 270 270 270 270
Wind_Speed
10 11 11 11 11 10 10 10 10 10 9 10 11 11 12 11 10 8 7 9 8 7 6 6 6 4 3 2 3 2 4 3 3 3 3 2 2 3 3 4 3 3 3 4 5 5 4 3 4 4 3 4 5 5 3 4 3 2 2 4 6 9 10 9 8 2 3 1 2 1 2 1 1 2 2 2 3 1 2 3 4 6 5 5 5
10 9 11 11 10 11 10 10 11 14 10 11 12 12 11 10 10 9 7 7 8 8 7 6 4 4 4 4 3 3 4 4 3 2 2 2 2 3 3 4 4 4 3 3 4 4 4 4 3 3 3 4 4 3 4 3 4 4 1 4 5 8 7 7 9 3 4 1 1 1 1 4 2 2 1 2 1 1 1 2 4 6 6 5 4
9 8 9 10 12 12 10 10 10 10 13 12 11 12 11 10 9 9 8 7 6 7 7 6 4 3 3 3 5 4 2 2 3 3 2 3 2 3 3 4 4 4 3 4 5 3 4 4 4 4 4 3 4 5 3 5 5 5 5 3 4 4 5 5 7 6 0 1 1 1 2 4 2 3 1 2 1 1 2 2 3 5 6 4 4
12 13 12 12 12 12 10 10 11 11 11 10 11 12 10 8 9 10 8 7 7 6 6 5 5 6 5 5 4 3 3 3 3 3 3 3 3 3 3 4 4 4 3 4 4 3 3 4 4 4 4 3 4 5 5 6 5 5 4 4 3 6 5 6 5 5 4 0 3 2 1 1 4 1 3 4 1 1 2 2 2 4 5 4 4
14 12 11 11 12 13 14 12 11 12 12 12 11 12 9 11 10 11 10 10 8 6 6 7 7 7 6 5 4 6 5 3 3 2 2 2 3 3 3 3 3 4 4 4 3 3 3 3 4 4 4 3 3 5 5 5 4 3 3 6 7 5 4 2 4 5 7 6 3 3 3 3 0 4 5 4 2 1 3 3 2 4 7 6 4
13 15 13 12 10 11 10 12 12 11 11 10 9 10 10 10 9 8 7 6 8 8 8 7 7 8 6 5 4 2 3 4 6 7 5 4 4 2 3 3 3 4 4 3 3 3 3 3 4 4 4 4 5 5 4 4 5 5 5 4 6 5 5 4 4 2 4 7 8 5 2 1 3 5 3 5 2 0 2 1 2 3 5 5 4
6 7 9 12 11 12 12 13 13 12 10 9 9 10 10 9 10 10 9 7 7 8 9 7 6 6 8 7 6 7 7 4 1 2 4 3 4 4 3 2 3 4 3 3 3 3 3 3 4 4 3 3 3 5 5 4 3 3 3 5 5 3 2 5 4 3 2 6 6 6 6 4 1 1 2 3 6 4 1 3 4 5 5 5 3
9 13 12 13 14 15 15 12 12 11 11 10 9 9 11 10 9 9 7 8 8 7 9 8 8 6 7 5 5 6 6 5 4 3 3 4 4 3 3 2 2 3 4 3 3 3 3 4 4 3 4 3 4 4 4 3 4 4 3 4 5 5 4 5 3 4 4 3 3 6 4 4 5 6 2 0 1 4 9 2 2 7 9 5 1
15 12 12 15 15 13 9 11 11 11 11 11 11 10 9 9 9 8 8 8 8 8 8 9 7 7 7 5 5 3 3 3 4 4 4 4 5 3 3 3 2 2 2 3 3 3 3 4 3 3 3 4 3 4 3 4 4 4 4 5 5 5 3 3 4 5 5 4 3 4 4 4 3 3 3 2 2 0 5 5 12 7 2 2 3
12 13 13 13 12 10 10 10 9 9 8 8 8 9 9 9 10 11 9 7 8 9 8 8 7 6 7 7 7 5 4 4 4 5 4 3 4 4 3 3 3 3 2 3 3 3 3 3 3 3 4 4 3 4 4 4 4 4 3 4 4 5 3 3 4 4 4 3 4 3 4 1 1 2 3 3 2 1 2 7 5 9 10 8 5
12 13 12 11 9 9 10 13 11 9 9 11 11 11 10 10 11 13 11 8 8 9 9 9 8 7 8 9 9 8 7 7 6 4 4 4 5 5 4 4 3 3 3 2 2 3 3 3 3 3 3 3 4 4 4 4 4 3 3 4 4 4 3 4 4 3 4 4 4 5 4 3 1 2 1 2 2 1 4 6 6 2 6 11 4
11 10 10 9 10 11 11 12 13 12 11 12 10 10 10 9 10 11 10 11 9 9 9 9 9 9 8 9 9 8 9 8 8 8 7 6 6 5 4 4 3 3 3 3 2 2 3 3 2 3 3 4 4 4 4 4 4 3 3 4 4 3 3 4 3 4 4 5 4 4 3 3 3 3 2 2 3 2 1 3 7 7 4 5 9
10 10 10 11 12 14 13 11 11 12 12 12 11 11 11 10 12 13 12 11 11 10 11 10 9 9 9 9 8 7 8 8 8 7 8 8 6 6 6 5 4 4 4 5 3 3 3 4 3 4 3 3 4 4 3 4 4 3 3 3 4 4 3 3 4 4 4 4 5 2 4 3 2 1 2 3 2 2 2 3 3 3 6 7 4
10 11 11 12 12 12 12 12 13 12 12 13 13 12 11 11 13 13 12 10 10 10 10 9 10 9 9 9 8 7 8 8 7 7 7 7 7 8 8 7 7 7 6 6 6 4 3 3 3 3 2 3 4 4 4 4 4 3 3 4 4 3 3 3 4 4 3 3 3 5 3 2 2 1 2 3 3 2 2 3 6 3 5 6 4
10 11 11 12 12 13 13 13 12 12 12 12 12 12 11 12 13 13 11 11 11 10 9 9 9 8 8 8 7 6 7 7 7 7 7 8 7 8 7 6 6 6 6 4 5 5 3 3 3 3 3 3 4 4 4 4 3 3 3 4 3 3 4 4 4 4 4 4 3 3 3 1 2 2 2 2 3 2 1 0 4 10 7 2 4
9 9 10 11 12 12 11 11 12 11 13 11 12 12 12 13 13 14 13 11 10 10 10 10 9 8 8 9 8 8 6 5 5 5 6 6 8 8 8 7 6 6 4 5 5 5 5 4 3 3 3 3 4 4 5 5 3 3 3 3 4 2 4 4 3 3 3 4 3 2 2 1 1 2 2 2 3 2 3 2 2 2 3 8 7
11 10 10 11 10 10 11 12 11 11 12 13 13 12 12 11 12 13 12 10 11 10 9 9 8 8 9 9 8 7 7 8 9 8 8 7 7 7 7 6 6 6 6 5 6 4 5 5 4 4 4 4 4 4 5 5 4 3 3 3 4 3 4 4 3 3 3 3 3 3 2 1 1 1 1 2 3 2 3 3 2 3 2 1 5
8 8 7 9 12 14 12 11 12 13 12 11 12 11 10 10 11 13 12 13 11 10 10 10 10 9 8 9 8 9 8 9 7 7 6 7 6 5 5 6 8 7 6 5 6 6 5 5 5 4 4 4 4 4 5 5 4 3 3 3 3 3 3 2 2 3 3 3 2 2 1 1 1 0 2 1 2 2 3 3 2 1 2 4 3
10 11 10 9 8 8 9 9 8 9 10 10 9 10 10 10 10 11 13 12 11 9 8 8 9 7 7 8 9 9 8 7 5 6 7 8 8 7 8 7 7 6 6 7 6 6 6 5 5 5 4 5 4 4 5 5 4 4 3 4 3 3 4 3 3 3 2 3 3 2 2 2 1 1 2 1 2 3 3 3 2 2 0 1 2
10 10 9 9 9 10 10 10 10 10 10 9 10 9 11 11 10 10 9 8 9 10 10 10 9 8 8 7 8 8 8 8 8 8 8 8 8 8 7 7 10 7 7 8 8 8 7 7 6 6 5 5 5 4 5 5 4 4 4 4 3 3 3 3 3 2 2 3 3 2 2 2 2 1 2 2 2 2 2 2 2 2 1 1 2
9 10 10 9 9 8 7 7 8 8 9 10 11 12 11 9 10 11 12 11 11 11 10 9 7 8 8 9 8 8 8 7 8 8 8 8 7 7 7 6 7 8 8 9 8 8 8 7 7 6 6 6 6 5 5 5 4 4 4 3 3 3 3 2 2 2 1 2 3 3 2 2 2 2 2 2 2 2 2 2 2 2 2 1 2
7 7 7 7 6 7 7 7 7 8 9 10 9 9 11 12 11 11 11 12 12 11 10 9 8 7 9 9 9 8 9 8 9 8 8 7 7 7 7 7 9 8 8 9 9 7 7 8 7 7 6 6 5 6 5 5 5 5 4 3 4 3 3 3 2 2 2 2 2 3 3 2 3 3 3 2 3 2 2 1 1 2 2 3 2
6 7 7 7 8 8 9 10 10 10 9 10 10 12 12 12 11 11 12 13 12 10 8 8 7 8 9 9 9 9 8 9 9 8 8 9 8 7 7 8 8 8 7 7 8 8 8 8 7 7 6 6 6 6 5 5 5 5 6 4 4 4 4 4 3 3 2 2 2 3 3 3 3 3 2 2 2 2 2 2 1 1 2 3 3
5 6 6 7 8 9 9 9 9 9 10 11 10 9 10 10 11 10 12 11 10 10 10 9 9 9 10 10 10 9 10 10 10 9 10 9 8 7 8 8 8 7 8 6 6 7 7 8 7 7 7 6 6 6 6 5 6 6 6 6 5 4 4 3 3 3 2 3 3 3 3 4 3 3 3 3 3 2 2 2 2 2 2 3 4
5 7 8 8 9 10 10 9 9 9 9 10 10 10 10 11 11 11 10 9 8 8 9 10 9 10 10 11 10 10 11 11 11 9 10 9 8 8 7 7 7 7 7 6 6 6 7 8 8 8 8 7 7 7 7 6 5 5 6 5 5 4 4 4 4 3 3 3 3 4 3 4 4 3 3 3 3 3 3 2 2 2 3 3 3
7 6 7 9 9 9 9 10 10 10 11 10 10 10 10 10 11 10 10 9 9 8 9 10 10 11 11 11 11 10 12 12 11 10 10 10 10 9 8 7 7 8 8 8 9 8 8 9 8 8 7 7 6 6 7 7 6 5 5 5 5 5 4 4 3 3 3 3 4 4 4 5 4 4 4 3 3 4 3 3 3 3 3 3 2
8 9 7 6 7 9 9 10 10 10 10 10 11 11 10 10 10 10 10 10 11 11 11 11 11 12 10 11 11 12 11 10 10 9 8 8 9 9 9 9 8 8 9 9 8 8 7 8 8 7 7 7 7 6 6 6 6 5 6 5 5 5 4 4 3 4 4 4 4 4 4 5 5 5 4 5 4 4 4 4 4 4 3 2 2
2 2 5 8 8 8 9 9 9 9 9 9 9 11 12 12 12 11 11 11 10 10 11 11 10 11 11 12 11 9 9 9 8 8 9 10 9 9 9 8 8 9 9 9 9 9 8 7 8 7 7 6 6 6 6 6 6 6 6 5 5 5 5 4 4 4 4 4 5 4 4 5 6 5 5 4 5 5 4 4 4 3 3 2 2
3 3 3 4 6 6 7 8 8 7 9 8 8 8 7 8 7 9 9 10 9 9 9 10 10 11 12 11 8 8 8 8 9 9 10 10 9 8 7 8 8 8 6 7 8 8 8 8 6 7 6 6 7 8 7 7 7 7 6 6 6 6 5 5 4 4 4 5 4 4 4 5 5 7 9 7 7 6 5 5 4 3 3 3 2
1 3 3 4 5 5 6 6 6 8 9 9 9 9 9 9 8 8 9 8 8 9 10 10 11 12 10 8 8 8 8 9 10 11 10 9 9 9 9 9 9 8 7 6 7 7 8 9 9 7 6 7 7 6 7 12 10 8 7 6 5 6 5 5 5 5 5 5 5 4 4 7 8 9 9 10 10 11 10 7 6 4 4 3 2
3 4 4 4 3 4 4 5 6 7 7 7 7 7 6 7 7 7 8 8 9 10 10 10 12 10 9 8 8 9 9 10 10 9 8 9 10 9 9 9 9 9 9 8 8 8 8 7 8 8 9 8 7 6 11 14 14 14 8 6 7 6 5 5 5 6 6 6 5 5 4 5 6 7 7 11 11 11 11 11 11 9 7 6 3
5 5 4 5 6 6 6 7 7 7 7 7 7 7 7 8 8 9 8 7 8 8 10 11 11 8 8 9 9 8 8 8 8 10 9 9 8 8 9 9 8 9 8 6 8 9 8 8 8 8 9 8 7 8 14 15 16 16 12 7 6 6 6 6 6 7 6 6 6 5 4 4 4 5 5 6 8 11 11 10 10 9 9 9 7
4 5 5 5 5 4 4 4 4 6 7 7 6 5 7 7 7 8 6 8 9 10 10 10 7 7 8 7 6 7 8 8 9 9 8 8 9 8 9 9 11 8 6 9 10 9 10 9 9 10 10 9 7 10 15 16 16 16 16 10 6 6 6 7 7 7 7 7 6 6 5 4 4 8 6 6 5 5 8 10 10 10 10 9 8
6 6 5 5 5 4 4 5 5 5 5 3 4 6 6 4 5 4 7 7 8 7 7 7 6 7 7 7 7 8 9 9 8 8 8 9 9 11 11 9 7 7 10 9 9 10 9 9 10 10 9 8 9 10 16 16 16 16 16 12 6 7 7 7 7 8 7 7 7 7 6 6 5 5 6 6 6 6 5 4 4 4 3 4 8
3 3 4 4 4 4 4 3 4 3 2 4 4 5 4 4 5 6 6 7 6 7 6 7 8 7 7 8 8 9 9 8 8 8 9 10 11 10 9 9 9 10 10 10 10 10 9 9 9 9 8 9 9 12 16 17 17 16 16 12 6 6 6 7 7 7 8 8 8 7 7 6 6 6 7 8 7 6 5 4 4 5 5 4 4
2 2 3 2 3 5 5 6 3 1 3 4 6 5 6 6 5 7 7 7 7 8 8 7 8 7 8 8 9 9 9 8 9 9 10 11 11 11 11 9 8 8 7 6 7 8 10 11 10 8 8 10 8 14 17 17 17 16 16 9 7 7 7 7 8 8 8 8 7 7 7 7 6 7 9 14 11 6 5 5 6 5 5 5 5
3 3 3 2 3 4 5 3 2 4 4 7 4 5 5 5 5 5 6 6 7 8 9 8 7 7 7 8 9 10 9 9 10 11 12 12 11 11 10 7 8 9 9 9 10 10 9 9 8 9 10 10 9 12 16 17 16 17 11 7 7 7 7 8 9 8 8 7 7 7 8 7 7 8 10 14 15 11 6 6 6 5 5 5 6
5 3 4 4 4 3 3 4 4 4 5 3 4 5 5 5 5 5 6 6 7 9 6 6 8 8 9 9 10 10 11 11 10 12 12 11 10 7 8 9 10 10 10 10 7 6 6 6 8 9 10 10 9 10 15 16 16 17 13 9 8 8 9 9 9 8 7 7 8 12 10 8 8 8 11 14 15 11 7 7 6 5 5 6 7
4 3 3 2 1 1 2 4 4 5 5 4 4 5 6 6 5 6 6 7 9 8 8 10 10 9 9 9 9 10 9 10 11 11 10 10 10 10 8 7 7 7 8 6 7 8 7 6 8 9 9 11 10 9 13 15 16 16 13 8 8 7 9 9 9 9 7 7 7 8 13 11 9 9 13 15 16 12 8 8 8 6 7 8 8
3 3 4 3 3 1 1 1 2 3 2 5 5 6 6 6 5 5 7 9 11 10 8 6 6 7 7 7 8 9 9 10 11 10 9 10 7 6 7 9 8 7 7 6 6 7 8 8 7 8 9 10 10 9 9 15 15 17 17 10 7 8 10 11 9 9 8 7 7 7 9 15 17 15 15 16 16 16 10 8 7 8 7 11 4
5 3 1 1 2 2 4 4 3 0 1 3 5 5 6 5 5 6 11 12 7 5 6 6 5 6 7 8 7 8 10 9 9 9 8 6 6 7 7 8 8 6 6 6 7 7 8 8 7 8 9 9 10 10 9 13 16 17 19 16 9 11 11 9 9 8 8 9 8 8 8 11 16 16 16 17 16 18 14 9 9 9 10 5 6
5 5 3 3 2 3 4 5 5 2 2 3 4 5 5 5 5 10 12 3 4 5 5 5 6 6 6 6 6 6 6 7 5 5 6 7 6 6 7 7 6 7 9 9 8 7 8 8 7 7 8 10 10 13 9 11 16 18 19 21 12 12 11 9 8 8 8 8 10 8 7 9 15 16 16 16 18 17 18 9 10 13 12 13 7
3 2 1 2 2 3 4 5 2 1 4 5 5 5 4 4 8 11 3 4 4 5 6 7 7 8 8 8 8 8 8 6 6 6 6 7 5 6 6 7 8 7 8 9 8 7 7 7 7 7 7 9 8 8 13 11 14 18 19 21 20 13 12 9 9 11 11 11 8 7 7 9 14 15 15 16 16 18 15 9 14 15 15 15 10
5 5 5 1 3 4 5 4 3 1 3 4 5 5 5 6 12 5 3 3 4 4 4 5 6 7 7 8 8 9 9 8 8 8 8 8 7 7 7 7 7 8 8 8 7 6 7 8 9 9 8 8 7 7 10 14 13 17 19 20 20 20 14 11 10 11 10 8 8 7 7 10 12 14 15 15 16 16 10 14 16 16 15 13 6
5 5 3 3 5 5 3 4 3 3 3 4 5 7 6 8 6 4 5 6 5 5 5 5 6 6 7 6 6 7 8 8 8 9 9 9 8 7 8 6 7 7 7 8 8 7 9 9 8 10 9 7 7 7 8 11 15 14 17 19 20 21 19 15 12 11 10 9 8 8 9 12 12 13 15 14 13 15 17 15 16 15 12 7 6
4 4 3 3 2 2 3 5 5 3 5 5 6 6 8 8 2 4 5 5 5 6 6 8 7 6 6 5 6 5 5 6 6 7 8 8 9 9 9 8 8 8 9 9 9 8 9 8 9 10 9 7 6 7 9 8 8 11 12 18 21 20 19 19 18 13 13 11 10 10 11 11 11 10 8 6 7 8 12 14 14 12 7 7 6
5 4 1 0 1 1 4 4 5 3 4 5 6 8 9 4 3 3 4 4 5 6 7 6 7 7 6 6 7 7 6 6 6 6 6 6 7 7 8 8 9 9 9 9 9 9 9 9 10 10 8 7 7 7 8 7 7 8 10 11 12 13 15 14 12 12 12 11 11 10 7 7 7 10 10 9 8 7 7 8 7 7 7 7 7
3 3 1 1 2 4 4 4 6 6 4 4 5 8 8 6 4 2 3 4 5 6 6 6 6 5 5 5 7 7 7 6 6 7 7 7 7 8 9 11 11 11 11 11 10 10 11 11 11 10 8 8 9 9 9 9 10 10 9 8 7 8 8 9 11 10 9 8 6 5 6 5 5 5 6 4 6 5 7 7 7 7 6 5 6
3 3 3 5 4 4 5 4 7 4 3 4 6 6 5 6 5 4 4 5 6 5 5 5 5 4 6 4 6 5 6 6 6 6 7 8 9 9 10 10 9 8 10 11 11 11 12 11 10 9 10 10 9 11 13 9 10 10 11 9 9 10 10 9 12 10 5 2 4 6 6 6 7 7 7 7 6 6 7 6 6 6 6 6 6
4 3 4 5 5 5 5 5 7 4 4 5 5 5 5 5 4 4 5 6 6 5 5 6 6 6 6 5 5 6 5 6 6 6 7 7 8 10 9 10 9 11 15 15 12 12 10 8 9 11 10 12 13 10 5 12 14 14 16 16 13 12 12 10 9 13 9 6 7 7 8 9 8 8 8 9 9 8 8 7 7 6 6 7 7
2 3 3 4 4 3 4 5 7 4 4 5 5 5 4 4 5 5 6 6 5 6 6 6 6 7 7 6 6 6 6 6 7 7 6 7 6 7 11 14 13 9 10 15 17 18 13 10 9 9 8 15 15 10 7 11 14 14 13 14 14 14 14 13 12 8 6 8 8 9 9 8 9 8 9 10 9 8 9 8 8 8 8 8 8
Wind_Direction
143 137 133 132 130 128 128 129 129 128 131 134 132 133 137 139 140 140 141 134 131 131 130 133 130 104 68 149 133 140 119 101 85 78 79 77 78 78 81 82 82 79 68 74 77 81 78 74 70 54 50 57 61 59 39 31 19 357 41 37 48 47 28 14 18 13 79 97 13 18 341 352 37 38 24 46 47 6 8 33 22 32 16 12 1
123 126 133 132 134 136 135 137 143 143 151 147 148 148 144 143 145 140 141 140 141 145 145 142 149 158 151 162 145 143 132 133 113 97 100 82 78 76 81 80 78 75 78 79 82 89 89 78 71 67 64 66 68 58 46 37 26 28 347 59 36 67 53 16 1 25 24 143 145 293 335 315 283 328 1 1 55 13 349 42 32 35 16 359 355
130 126 136 139 140 143 144 146 152 150 152 153 151 148 149 151 151 145 143 143 146 147 144 147 149 121 125 146 149 126 78 107 109 107 100 94 73 75 79 80 83 76 76 85 87 84 94 92 80 74 56 65 74 54 44 40 32 32 27 87 78 53 74 40 23 33 109 227 231 101 14 6 333 340 346 356 346 353 337 26 44 39 12 355 351
154 154 152 151 151 151 150 153 158 157 156 157 158 154 152 153 151 145 140 138 142 150 146 121 102 90 81 112 89 94 137 104 88 98 105 97 79 74 67 83 83 86 81 82 86 86 95 97 93 75 71 64 81 82 55 50 31 32 35 39 91 62 27 21 34 16 16 182 25 63 245 66 352 313 318 294 293 304 8 356 46 28 10 357 1
147 146 145 146 154 166 168 162 156 163 166 166 164 163 163 160 157 157 155 152 149 151 138 117 107 87 94 84 86 82 67 79 112 114 144 126 108 82 82 87 91 93 86 88 100 100 91 97 93 90 87 68 78 79 68 57 43 39 41 60 52 108 59 15 10 27 31 19 118 63 8 23 275 273 339 284 319 338 339 346 29 17 9 352 350
156 157 161 162 156 154 159 165 170 168 169 167 161 160 158 159 153 151 144 143 150 150 138 142 143 140 147 149 150 118 138 168 193 184 180 172 159 124 89 91 105 96 91 97 104 108 99 95 97 96 90 84 80 82 81 67 42 42 31 66 72 50 115 65 7 1 35 45 47 79 126 182 302 300 31 325 319 216 263 293 352 14 2 344 336
152 132 138 154 164 168 171 174 175 170 168 157 161 163 161 162 162 159 155 149 150 152 150 152 153 160 176 182 177 183 184 210 149 129 156 123 117 123 116 93 98 108 97 102 101 103 104 97 99 99 100 101 91 83 79 76 66 55 36 57 56 68 65 78 46 315 348 43 46 64 67 46 66 35 3 289 341 318 322 349 330 347 352 338 328
152 161 169 171 172 176 176 175 174 173 159 157 162 165 168 167 165 162 155 151 159 159 163 165 173 173 177 184 184 188 195 185 164 139 118 126 122 123 114 92 75 97 115 108 111 114 112 101 104 109 110 102 93 90 100 100 85 58 61 65 68 63 65 91 78 17 84 20 39 55 43 43 43 46 33 109 167 310 318 313 148 8 331 330 300
161 160 170 176 177 179 166 165 168 159 164 165 168 169 163 159 158 155 163 158 165 167 170 178 176 174 183 178 188 183 143 130 125 119 134 138 121 115 107 96 85 65 96 113 114 120 111 117 112 115 110 102 99 102 93 90 92 96 80 74 76 67 66 83 84 60 58 66 50 41 46 56 47 54 21 29 105 46 290 333 322 334 288 242 342
169 171 175 176 173 165 160 150 158 170 163 164 156 160 165 162 164 166 168 165 164 173 178 178 178 174 178 189 187 172 136 120 135 148 145 149 143 137 122 123 126 107 81 88 95 100 113 112 123 130 124 117 105 113 104 91 85 86 96 100 95 90 78 94 99 94 77 71 72 85 82 42 52 28 29 19 24 122 240 303 318 325 332 307 337
174 172 176 176 169 147 153 169 167 160 170 171 169 171 170 174 171 173 172 162 168 178 179 184 181 183 189 194 190 175 161 154 155 153 145 166 163 156 153 157 151 143 122 85 112 123 123 123 132 144 129 113 117 118 116 114 110 105 100 91 93 107 101 95 93 87 88 81 72 74 77 95 168 142 165 40 103 41 337 306 308 260 270 303 296
169 166 166 156 153 168 176 170 172 174 170 175 175 169 174 177 174 173 171 170 173 181 183 186 184 192 201 195 192 181 167 171 177 179 176 174 175 166 163 148 165 154 129 133 148 143 125 121 132 110 113 117 119 121 116 118 115 113 107 104 102 104 112 105 108 100 94 92 84 88 95 96 67 105 158 146 113 157 171 284 307 317 298 224 287
162 166 163 165 173 175 180 172 168 173 181 177 173 175 175 175 178 179 182 177 181 181 188 186 188 197 198 196 193 174 177 179 179 181 182 182 163 165 171 178 172 174 187 171 188 168 143 136 146 139 130 133 131 117 122 119 115 114 121 113 118 117 124 122 110 111 113 108 113 99 106 98 115 187 126 132 138 159 181 287 247 255 272 300 302
168 174 175 174 174 176 176 174 177 178 178 178 178 178 179 178 179 185 185 180 183 188 189 189 199 200 201 199 193 177 184 182 183 185 183 184 173 177 181 181 185 194 180 191 176 168 159 166 153 151 148 144 133 128 133 126 118 130 129 121 121 130 117 118 116 113 104 114 115 107 106 122 170 164 152 123 126 96 31 350 315 264 226 273 280
175 179 180 176 176 175 176 180 181 180 177 178 180 182 178 181 180 184 181 183 186 190 187 195 200 202 205 204 196 185 186 186 187 185 178 179 178 176 182 178 185 192 191 181 161 157 162 155 147 156 165 152 133 131 130 119 124 130 132 128 126 134 129 126 125 122 116 116 112 125 142 174 192 190 155 148 136 133 132 138 15 350 339 256 286
180 181 180 181 178 177 178 179 178 178 181 181 182 182 184 184 181 184 185 182 184 186 193 195 201 198 201 201 201 192 187 181 179 177 178 184 177 179 180 182 182 171 175 167 168 152 157 160 158 173 177 156 140 141 138 131 135 146 146 137 136 151 134 131 137 127 131 134 132 135 119 202 220 197 183 147 149 144 141 116 78 82 33 331 328
180 182 182 179 175 180 183 183 178 179 180 183 184 185 186 180 180 183 185 181 188 192 191 194 200 200 202 201 199 192 186 189 193 186 180 179 173 177 174 177 162 169 171 174 155 155 156 157 163 178 181 164 147 149 143 139 152 162 157 151 149 159 138 146 154 146 158 146 137 162 172 204 217 195 132 129 138 122 128 148 153 163 174 182 324
173 173 179 184 185 183 183 184 180 180 181 181 184 182 182 185 185 182 182 188 189 189 192 194 199 203 202 203 203 199 198 200 191 178 166 161 166 163 154 161 177 174 168 167 153 155 158 159 165 183 182 164 158 154 142 146 152 163 169 167 168 156 140 135 172 162 169 156 148 158 208 216 203 152 139 145 134 143 137 139 159 203 169 170 201
169 180 187 186 187 189 187 180 174 176 178 178 175 178 183 187 188 188 188 189 186 187 192 197 199 199 201 204 204 203 204 197 175 162 163 172 176 174 177 179 160 161 166 159 158 159 161 164 174 182 179 168 161 158 148 148 160 159 173 168 181 158 144 167 201 178 176 157 160 193 210 227 215 163 132 124 127 139 151 139 175 172 173 167 180
178 181 188 187 188 187 180 173 173 172 171 172 174 175 185 188 184 187 184 182 180 189 193 201 198 195 198 199 207 200 199 187 178 171 173 181 181 177 174 166 167 164 178 163 165 166 167 166 183 182 180 168 167 166 159 158 163 174 171 172 192 162 147 165 189 204 160 166 169 197 213 211 190 137 130 136 147 158 151 160 157 173 192 182 178
178 181 183 186 185 177 168 162 161 165 171 172 176 182 183 181 186 183 183 183 190 192 191 200 192 198 195 201 201 193 192 191 181 175 177 180 173 173 179 168 154 181 175 170 171 172 169 169 177 186 181 174 172 173 167 161 171 174 182 180 182 174 157 188 173 178 179 165 188 202 208 218 169 157 151 149 146 157 165 164 174 165 203 208 184
174 173 175 174 162 156 153 152 159 166 171 175 176 175 183 189 189 185 186 190 189 189 191 192 191 192 200 203 203 192 190 185 182 179 174 171 172 176 170 155 178 182 182 175 172 172 170 167 180 189 184 177 177 174 169 164 172 172 177 181 180 176 170 188 189 193 175 189 185 198 212 201 180 159 157 162 161 165 170 152 178 179 215 260 232
164 164 169 165 158 158 162 168 172 174 173 173 178 186 187 188 188 192 191 195 189 180 175 180 186 194 202 204 199 194 187 185 182 181 183 178 175 169 166 174 181 178 185 180 172 173 171 168 182 188 182 182 182 179 173 173 179 177 176 186 183 174 177 187 195 210 191 170 182 209 215 184 166 151 171 174 173 183 182 177 202 211 230 252 254
150 155 158 159 157 159 164 173 173 174 177 183 185 184 184 188 193 192 199 194 186 182 179 182 189 197 199 200 197 189 186 186 186 186 185 179 169 169 173 184 182 168 177 181 168 173 168 171 183 188 189 184 184 182 175 183 186 182 181 184 184 182 190 197 197 201 190 183 200 204 215 188 179 168 172 178 193 187 191 195 214 233 229 247 255
153 162 163 158 159 167 175 174 177 180 181 182 183 185 185 188 189 195 199 193 188 178 178 186 187 194 199 203 197 188 190 192 193 186 183 170 171 167 174 187 179 176 171 165 169 173 173 175 187 193 190 190 190 182 179 187 194 191 188 183 181 183 193 202 203 206 206 196 201 210 203 184 177 174 180 188 194 200 207 204 220 241 236 247 252
170 164 160 166 169 174 175 180 182 184 184 183 184 185 189 190 194 190 187 188 187 177 186 185 189 195 199 201 199 193 197 195 191 186 182 175 169 171 175 183 183 180 172 177 175 182 184 183 190 195 194 192 186 185 186 188 190 192 195 190 179 182 194 199 203 211 215 212 213 214 198 184 179 185 198 195 192 205 209 217 234 246 246 253 251
174 173 176 167 168 179 182 180 186 186 186 185 183 184 187 191 191 189 189 186 189 186 188 192 193 198 198 201 199 201 197 192 190 185 173 171 175 173 175 185 184 187 181 177 181 183 194 185 191 190 196 190 188 188 189 188 189 192 197 194 185 186 195 197 205 213 221 220 218 213 195 189 190 193 187 190 191 203 203 219 227 234 255 257 285
74 115 160 176 183 182 183 186 185 189 188 189 189 188 189 190 193 189 189 192 192 190 191 193 193 200 205 204 205 196 191 191 180 172 177 176 173 175 182 179 177 190 187 182 179 187 195 190 189 193 195 186 185 191 193 190 190 193 197 203 190 189 194 200 207 220 223 227 223 213 202 197 194 191 189 191 183 199 197 221 231 227 245 249 275
156 177 199 184 185 192 189 187 189 181 185 189 187 189 192 195 190 191 188 195 188 189 193 195 197 204 208 205 193 187 185 175 174 174 177 180 179 177 175 179 186 196 191 181 182 186 185 191 192 194 193 188 192 198 194 189 188 197 203 203 196 195 192 196 205 219 227 231 233 219 211 205 199 196 196 190 194 191 182 209 236 221 235 240 260
275 228 211 217 200 192 199 192 184 182 185 189 190 192 192 185 189 183 186 189 173 193 192 197 203 208 206 195 187 182 180 174 177 183 183 178 176 176 179 185 190 192 187 177 179 190 195 193 189 193 196 196 202 203 195 192 190 192 199 200 194 198 194 194 202 216 234 233 233 225 221 208 203 201 205 210 212 214 209 199 213 210 218 217 234
240 239 220 220 228 214 198 190 192 196 194 190 194 193 186 186 184 182 186 183 179 189 194 196 206 205 197 186 184 188 176 183 185 177 176 179 182 176 182 189 191 190 188 179 178 191 200 196 192 192 201 206 206 202 197 200 200 202 195 196 195 200 191 194 202 207 225 230 234 229 225 218 210 206 211 218 225 227 234 239 239 229 208 192 196
246 245 235 215 208 198 193 198 199 197 191 192 196 191 180 195 186 187 188 172 181 189 195 202 207 196 190 190 190 177 178 180 172 183 181 180 170 176 188 190 189 194 191 173 189 200 198 198 196 198 207 210 210 201 202 204 206 207 200 193 197 196 191 199 202 210 221 223 229 228 223 208 206 206 202 219 229 234 238 242 246 250 257 261 253
242 245 244 244 235 216 197 195 191 194 193 208 191 177 197 192 186 193 158 171 188 194 199 204 200 187 194 189 169 170 177 178 186 182 175 170 177 186 194 193 200 192 173 194 201 193 202 198 199 203 210 208 213 202 205 206 209 210 207 192 202 198 196 204 203 209 213 219 221 223 226 213 211 208 207 208 214 231 240 244 248 252 257 257 256
253 235 231 236 233 228 213 202 198 193 191 181 183 194 205 192 178 147 170 184 186 198 198 201 190 192 188 177 173 176 183 186 181 174 172 179 184 199 200 197 189 181 196 202 200 202 199 201 206 210 212 208 213 201 205 208 211 210 209 199 200 201 210 210 207 206 211 214 214 214 213 221 207 201 206 205 207 216 221 238 253 261 260 260 254
268 291 279 271 281 299 306 302 263 222 169 149 179 189 156 145 155 168 180 176 191 190 199 197 194 194 181 178 178 181 186 182 176 175 178 189 197 201 195 195 193 197 198 202 201 202 205 206 208 208 212 215 215 197 206 210 211 209 209 206 194 203 212 220 219 213 213 213 212 212 212 215 201 201 205 200 200 205 204 218 228 237 238 238 231
239 230 252 231 233 231 233 245 261 179 187 185 194 167 161 175 165 173 175 183 184 193 202 196 200 191 186 183 179 184 185 179 176 180 188 198 202 200 201 196 195 202 205 200 208 205 209 210 209 201 208 223 214 196 206 211 211 209 205 205 198 204 214 222 226 223 220 217 211 207 210 214 208 209 209 206 200 184 190 204 222 233 239 240 233
262 204 232 215 210 206 226 219 222 202 190 208 187 165 169 156 167 178 174 185 185 200 205 199 199 189 187 184 183 184 186 182 183 188 197 202 201 205 205 186 197 204 202 204 209 207 210 208 201 200 208 223 219 204 205 209 210 206 199 202 202 208 219 224 230 227 224 217 212 208 210 211 208 215 211 208 206 178 186 200 215 227 234 238 238
260 271 254 246 231 222 223 198 200 211 220 201 171 168 163 167 179 175 179 194 200 214 204 195 200 193 190 188 189 188 190 190 189 197 202 205 204 202 200 186 198 200 208 214 208 211 210 204 205 210 211 219 225 207 206 208 207 203 197 200 202 207 222 226 237 234 225 222 218 214 209 211 211 217 209 209 209 186 185 197 204 219 234 242 243
247 249 277 285 298 220 192 176 178 203 218 180 167 162 166 186 186 185 190 198 211 211 198 200 203 195 193 191 191 192 193 191 196 204 202 203 201 202 191 177 203 206 217 205 198 211 214 208 211 216 206 217 231 213 205 209 204 202 200 201 199 207 222 231 230 240 229 225 227 220 218 214 214 215 210 212 209 196 187 191 197 199 228 238 237
292 292 262 277 331 14 2 337 224 243 171 165 157 163 179 187 193 177 197 216 217 212 206 203 196 193 192 190 192 194 197 196 202 204 203 207 197 182 183 191 202 204 211 200 198 203 213 218 207 212 216 217 225 225 206 209 204 203 200 197 197 202 224 230 225 231 239 234 229 230 224 224 223 220 216 215 212 205 190 190 178 202 215 242 206
292 283 333 302 288 238 239 237 251 286 149 157 156 161 193 198 186 192 217 222 216 195 194 198 191 191 196 199 198 198 200 205 203 204 201 198 187 193 188 191 197 195 202 205 205 210 217 226 213 214 219 221 220 226 214 203 207 204 204 199 203 213 223 222 224 227 230 238 235 227 227 220 223 223 220 217 215 213 201 183 192 206 210 204 153
253 268 289 288 277 262 272 277 259 225 172 164 165 181 197 191 192 221 228 193 178 185 176 179 190 198 202 202 204 210 210 208 206 194 193 202 198 190 191 191 191 191 203 213 212 213 220 228 224 217 218 225 220 219 221 206 208 208 207 204 207 219 214 212 221 233 235 236 236 229 225 211 216 223 223 218 216 215 211 192 204 210 215 216 207
316 306 207 187 265 267 259 251 273 177 167 172 165 187 196 198 219 237 210 183 187 181 185 188 191 195 199 200 200 198 202 198 199 195 195 203 183 185 191 185 190 197 206 214 215 214 220 233 236 230 226 227 223 222 218 218 213 211 211 212 214 219 209 204 214 230 230 236 230 229 226 203 208 216 221 220 218 215 215 207 204 209 216 218 219
272 252 273 336 282 283 282 288 286 233 173 171 169 193 210 213 240 232 195 190 184 195 187 196 203 206 203 204 201 200 199 196 194 188 193 196 192 191 193 194 192 196 203 214 218 209 219 232 236 241 232 227 223 221 223 220 219 217 218 217 219 221 204 213 212 232 235 234 230 224 214 203 209 213 217 220 219 215 209 212 213 212 216 221 190
248 259 252 208 223 244 274 294 270 225 210 196 196 195 209 225 241 186 203 190 190 180 187 204 212 213 213 214 208 205 203 200 197 187 193 199 200 185 197 201 190 202 205 214 219 204 219 227 233 241 241 228 215 217 229 223 220 221 222 224 224 226 223 205 216 233 233 233 228 216 202 206 208 212 215 219 222 221 217 212 214 216 214 198 177
290 290 254 229 254 280 294 282 291 229 210 208 212 203 212 230 192 187 191 189 177 180 193 207 208 210 213 203 207 219 216 213 207 204 207 200 196 192 201 193 194 204 205 210 217 209 221 225 234 239 239 232 211 214 226 222 215 220 224 228 228 228 228 224 223 232 231 226 219 209 200 201 205 208 210 212 216 217 219 216 213 210 204 191 180
296 286 331 102 133 258 266 259 275 270 210 214 213 221 231 247 215 192 182 174 185 192 208 212 214 212 203 193 204 210 211 210 209 209 211 207 202 199 201 203 200 204 207 212 215 213 219 222 232 236 235 225 225 222 223 216 206 210 219 225 229 235 233 233 235 235 236 233 226 217 208 197 194 203 207 210 215 213 218 223 215 208 200 190 188
240 275 265 286 234 238 248 243 251 257 222 221 222 231 236 237 239 201 170 169 190 201 210 219 218 213 211 205 210 212 207 209 210 203 206 212 212 204 205 210 203 202 201 212 211 214 217 218 226 226 223 227 231 229 222 214 209 207 217 210 214 221 219 220 226 229 227 223 205 190 193 191 188 201 212 216 219 207 209 209 215 208 204 188 190
274 243 188 203 216 230 238 235 258 256 225 220 230 239 239 232 229 207 177 183 207 213 219 227 219 207 222 209 213 210 212 212 214 215 225 215 205 207 217 229 225 208 205 207 207 219 220 220 217 214 210 227 233 231 231 206 210 195 198 197 206 212 212 216 220 215 192 145 155 172 188 190 196 203 208 213 211 208 219 214 213 211 202 188 183
226 226 222 230 225 225 242 248 258 240 236 237 244 239 228 221 208 198 183 200 213 210 216 227 213 211 217 205 210 212 210 212 213 219 226 246 242 232 226 223 235 219 224 226 215 223 219 210 218 227 207 217 226 235 200 188 202 196 203 203 205 204 204 209 210 206 179 186 192 201 203 203 205 203 211 215 212 206 210 211 217 203 200 204 206
284 303 271 240 249 225 234 256 263 249 241 238 246 246 230 205 190 187 186 202 197 211 225 232 213 221 210 207 205 210 207 206 211 214 219 234 258 251 244 246 249 248 235 235 237 244 244 223 216 243 236 242 256 259 207 196 203 206 195 203 209 211 208 207 195 177 178 200 203 208 214 207 213 205 214 219 208 204 213 211 211 201 208 211 211